Regional Weather Roundup
Issued by NWS Northern Indiana

Home | Current Version | Previous Version | Graphics & Text | Print | Product List | Glossary On
Versions: 1 2 3 4 5 6 7 8 9 10 11 12 13 14 15 16 17 18 19 20 21 22 23 24 25 26 27 28 29 30 31 32 33 34 35 36 37 38 39 40 41 42 43 44 45 46 47 48 49 50
000
ASUS43 KIWX 241800
RWRIWX

KIWX WEATHER ROUNDUP
NATIONAL WEATHER SERVICE NORTHERN INDIANA
200 PM EDT SUN JUL 24 2016

NOTE: "FAIR" INDICATES FEW OR NO CLOUDS BELOW 12,000 FEET WITH NO
SIGNIFICANT WEATHER AND/OR OBSTRUCTIONS TO VISIBILITY.

* THESE STATIONS ARE NOT UNDER NWS QUALITY CONTROL. THEY ALSO MAY NOT
  REPORT WEATHER SUCH AS PRECIPITATION OR FOG.

INZ001>027-241900-
NORTHERN INDIANA

CITY           SKY/WX    TMP DP  RH WIND       PRES   REMARKS
GARY*          CLOUDY    90 N/A N/A S14G25    29.92S
SOUTH BEND     CLOUDY    85  75  72 SW12      29.96F
6HR MIN TEMP:  70; 6HR MAX TEMP:  85;

ELKHART*       MOSUNNY   84  81  89 SE8       29.98F HX  98
GOSHEN         PTSUNNY   85  75  72 E7        29.98F
6HR MIN TEMP:  72; 6HR MAX TEMP:  86;

ANGOLA*          N/A     79  72  78 VRB3      30.02S
FORT WAYNE     PTSUNNY   89  74  60 SW9       30.01R HX  98
6HR MIN TEMP:  72; 6HR MAX TEMP:  89;

PERU/GRISSOM   MOSUNNY   89  76  65 SW9       29.98S HX 100
6HR MIN TEMP:  72; 6HR MAX TEMP:  89;


$$
INZ028>050-241900-
CENTRAL INDIANA

CITY           SKY/WX    TMP DP  RH WIND       PRES   REMARKS
LAFAYETTE      MOSUNNY   89  77  67 SW13G18   29.96S HX 101
6HR MIN TEMP:  72; 6HR MAX TEMP:  89;

KOKOMO*        PTSUNNY   90  73  58 S13       29.99S HX  98
6HR MIN TEMP:  72; 6HR MAX TEMP:  91;

MUNCIE*        CLOUDY    90  75  61 SW8       30.01S HX 100
6HR MIN TEMP:  77; 6HR MAX TEMP:  91;

INDIANAPOLIS   PTSUNNY   91  76  61 SW13      30.00S HX 103
6HR MIN TEMP:  77; 6HR MAX TEMP:  91;


$$
MIZ043>046-050>051-056>058-064>065-071>073-077>080-241900-
SOUTHWEST LOWER MICHIGAN

CITY           SKY/WX    TMP DP  RH WIND       PRES   REMARKS
BATTLE CREEK   CLOUDY    69  69 100 SE7       29.96F
6HR MIN TEMP:  67; 6HR MAX TEMP:  70; 6HR PCP:  1.03;

BENTON HARBOR  CLOUDY    80  72  76 SE10      29.93F
6HR MIN TEMP:  72; 6HR MAX TEMP:  81; 6HR PCP:  0.01;

COLDWATER*     CLOUDY    74  73  95 SE5       29.99F
6HR MIN TEMP:  72; 6HR MAX TEMP:  74;

HOLLAND        CLOUDY    78  73  84 S14       29.92F
6HR MIN TEMP:  69; 6HR MAX TEMP:  78;

GRAND RAPIDS   CLOUDY    79  70  74 S8        29.94F
6HR MIN TEMP:  69; 6HR MAX TEMP:  79; 6HR PCP:  0.79;

KALAMAZOO      CLOUDY    77  71  82 S15       29.94F
6HR MIN TEMP:  71; 6HR MAX TEMP:  77; 6HR PCP:  0.90;

STURGIS*       MOSUNNY   79  71  76 SE7       29.99F
6HR MIN TEMP:  70; 6HR MAX TEMP:  79; 6HR PCP:  0.02;

THREE RIVERS*  FAIR      82  72  71 S9        29.97F
6HR MIN TEMP:  73; 6HR MAX TEMP:  82;


$$
OHZ001>008-015>018-024>025-241900-
NORTHWEST OHIO

CITY           SKY/WX    TMP DP  RH WIND       PRES   REMARKS
DEFIANCE       CLOUDY    81  70  69 E6        30.03F
6HR MIN TEMP:  75; 6HR MAX TEMP:  82; 6HR PCP: TRACE;

FINDLAY        CLOUDY    78  66  66 N16G23    30.04R
6HR MIN TEMP:  77; 6HR MAX TEMP:  88; 6HR PCP:  0.02;

TOLEDO EXPRESS LGT RAIN  70  70 100 SW8       30.02F
6HR MIN TEMP:  70; 6HR MAX TEMP:  79; 6HR PCP:  0.25;

TOLEDO METCALF LGT RAIN  74  71  91 SW14      30.03R
6HR MIN TEMP:  74; 6HR MAX TEMP:  84; 6HR PCP:  0.12;

LIMA           CLOUDY    85  75  72 NW7       30.03R
6HR MIN TEMP:  75; 6HR MAX TEMP:  89; 6HR PCP: TRACE;


$$
AND FOR LAKE MICHIGAN COASTAL AND OPEN LAKE BUOY OBSERVATIONS

STATION/POSITION TEMP    WIND        PRES    VSBY  WAVE
                 AIR SEA DIR/SP/G                  HT/PER
                 (F)     (DEG/KT/KT) (MB)    (MI)  (FT/S)
CALUMET HARBOR    86     190/ 11/ 17 1012.1F
MICHIGAN CITY     84     180/ 16/ 19   N/A
BURNS HARBOR      86     190/ 11/ 21 1013.5F
SAINT JOSEPH      78      50/  2/  6 1015.2F
SOUTH LAKE BUOY   75 72  150/ 17/ 21 1011.3          3/ 5
4 MI NW BRIDGMAN  78 74   40/  6/ 10 1013.7R         2/ 3
MICHIGAN CITY     81 74  200/ 10/ 14   N/A           1/ 3

$$
&&



USA.gov is the U.S. government's official web portal to all federal, state and local government web resources and services.